Regional Weather Roundup
Issued by NWS

Home | Current Version | Previous Version | Graphics & Text | Print | Product List | Glossary On
Versions: 1 2 3 4 5 6 7 8 9 10 11 12 13 14 15 16 17 18 19 20 21 22 23 24 25 26 27 28 29 30 31 32 33 34 35 36 37 38 39 40 41 42 43 44 45 46
000
ASUS45 KPSR 270110
RWRAZ

ARIZONA REGIONAL HOURLY WEATHER ROUNDUP
NATIONAL WEATHER SERVICE TUCSON AZ
600 PM MST FRI MAY 26 2017

NOTE: FAIR INDICATES FEW OR NO CLOUDS BELOW 12,000 FEET WITH NO
SIGNIFICANT WEATHER AND/OR OBSTRUCTIONS TO VISIBILITY.

AZZ001>003-036-270200-
NORTHWEST ARIZONA

CITY           SKY/WX    TMP DP  RH WIND       PRES   REMARKS
BULLHEAD CITY  SUNNY     95  21   7 S17G24    29.69F
KINGMAN        SUNNY     81  22  11 SW17G26   29.88S
$$

AZZ004>008-015-016-018-270200-
NORTH CENTRAL ARIZONA

CITY           SKY/WX    TMP DP  RH WIND       PRES   REMARKS
GRAND CANYON   SUNNY     69  17  13 SW21G29   30.02S
WILLIAMS       CLEAR     66  19  16 SW14G23   30.07R
PRESCOTT       SUNNY     74  22  14 SW13      30.00R
FLAGSTAFF      SUNNY     65  16  15 SW23G29   30.06F
PAYSON         CLEAR     73  12   9 S9G17     30.04R
PAGE           SUNNY     84  16   8 W8G20     29.79R
$$

AZZ009>014-017-270200-
NORTHEAST ARIZONA

CITY           SKY/WX    TMP DP  RH WIND       PRES   REMARKS
WINSLOW        SUNNY     78  13   8 W20       29.95R
SAINT JOHNS    SUNNY     76   6   7 SW18G32   29.99R
WINDOW ROCK    SUNNY     72   8   8 SW24G30   30.02R
SHOW LOW       SUNNY     68  10  10 SW23G31   30.06R
$$

AZZ023-270200-
GREATER PHOENIX AREA

CITY           SKY/WX    TMP DP  RH WIND       PRES   REMARKS
PHOENIX        SUNNY     92  31  11 W13G20    29.76S
BUCKEYE        CLEAR     91  25   9 SW9       29.78S
GLENDALE       SUNNY     93  23   8 S16       29.79S
DEER VALLEY    SUNNY     89  23   9 SW10      29.79S
SCOTTSDALE     SUNNY     91  26   9 W12G18    29.81S
MESA-FALCON    SUNNY     91  25   9 W9        29.79S
MESA-GATEWAY   SUNNY     91  21   8 CALM      29.79F
CHANDLER       SUNNY     93  21   7 SW7G18    29.77S
$$

AZZ027-028-270200-
SOUTHWEST MARICOPA COUNTY AND PINAL COUNTY

CITY           SKY/WX    TMP DP  RH WIND       PRES   REMARKS
CASA GRANDE    NOT AVBL
$$

AZZ503-504-507>509-270200-
SOUTHEAST ARIZONA

CITY           SKY/WX    TMP DP  RH WIND       PRES   REMARKS
TUCSON         SUNNY     91  21   8 SW20      29.88S
DAVIS-MONTHAN  SUNNY     91  19   7 W13G20    29.87S
RYAN FIELD     CLEAR     91  28  10 SW16G24   29.86S
NOGALES        SUNNY     84  26  12 S22G29    29.97S
SIERRA VISTA   SUNNY     83  15   8 SW17      30.02R
DOUGLAS        SUNNY     85  23  10 SW22G29   29.97S
SAFFORD        SUNNY     92  16   6 W15G29    29.83S
$$

AZZ020-021-025-026-031-270200-
SOUTHWEST ARIZONA

CITY           SKY/WX    TMP DP  RH WIND       PRES   REMARKS
YUMA           SUNNY     91  34  13 W7        29.76F
$$

CAZ031-033-041-043-047-048-061-270200-
SOUTHERN CALIFORNIA

CITY           SKY/WX    TMP DP  RH WIND       PRES   REMARKS
DOWNTOWN L.A.  MOSUNNY   68  52  56 VRB3      29.97R
L.A. AIRPORT   MOSUNNY   65  53  65 W16       29.98S
SAN DIEGO      MOSUNNY   69  54  58 W10       30.00S
BURBANK        MOSUNNY   67  48  50 S7        29.96S
ONTARIO        MOSUNNY   70  49  47 W13G20    29.95S
RIVERSIDE      SUNNY     70  51  51 W17G24    29.95R
PALM SPRINGS   SUNNY     90  40  17 N15G24    29.77S
EL CENTRO NAS  SUNNY     90  40  17 W23       29.76S
IMPERIAL       LGT RAIN  91  45  20 W16       29.73S
BLYTHE         SUNNY     93  30  10 SW15      29.74S
NEEDLES        SUNNY     95  21   7 S15G26    29.73S
$$

NVZ020-UTZ003-270200-
SOUTHERN NEVADA-UTAH

CITY           SKY/WX    TMP DP  RH WIND       PRES   REMARKS
LAS VEGAS      SUNNY     89  22   8 S13G22    29.71S
SALT LAKE CITY PTSUNNY   67  31  26 NW17      29.94R
$$

NMZ009-TXZ055-270200-
NEW MEXICO-WEST TEXAS

CITY           SKY/WX    TMP DP  RH WIND       PRES   REMARKS
ALBUQUERQUE    MOSUNNY   84   5   5 W23G29    29.89S
EL PASO        FAIR      91  20   7 SW29G37   29.90R
$$


........................KEY........................
SKY/WX - SKY CONDITION/WEATHER
TMP    - TEMPERATURE IN FAHRENHEIT
DP     - DEWPOINT IN FAHRENHEIT
RH     - RELATIVE HUMIDITY IN PERCENT
WIND   - DIRECTION AND SPEED IN MILES PER HOUR (MPH)
VRB    - VARIABLE WIND DIRECTION
PRES   - MEAN SEA LEVEL PRESSURE IN INCHES OF MERCURY
         F - FALLING PRESSURE   R - RISING PRESSURE
         S - STEADY PRESSURE
VSB    - VISIBILITY IN MILES
HX     - HEAT INDEX IN FAHRENHEIT
WCI    - WIND CHILL INDEX IN FAHRENHEIT
TC     - TEMPERATURE IN CELSIUS WHICH IS ALSO KNOWN AS
         TEMPERATURE IN CENTIGRADE
AFB    - AIR FORCE BASE
         LUKE AFB IS LUKE AIR FORCE BASE
         DAVIS-MONTHAN IS DAVIS-MONTHAN AIR FORCE BASE
NAS    - NAVAL AIR STATION
         EL CENTRO NAS IS EL CENTRO NAVAL AIR STATION
N/A    - NOT AVAILABLE





USA.gov is the U.S. government's official web portal to all federal, state and local government web resources and services.